Salon, France

4:09 AM CET on December 09, 2016 (GMT +0100)
Salon Air Base

Weather History for LFMY - March, 2013

Change the Weather History Date:

Tuesday, March 19, 2013

  Actual Average (LFML) Record (LFML)
Temperature  
Mean Temperature 45 °F -  
Max Temperature 57 °F 61 °F 68 °F (1998)
Min Temperature 33 °F 43 °F 37 °F (2003)
Degree Days  
Heating Degree Days 20    
Moisture  
Dew Point 32 °F    
Average Humidity 65    
Maximum Humidity 87    
Minimum Humidity 36    
Precipitation  
Precipitation 0.00 in - - ()
Sea Level Pressure  
Sea Level Pressure 29.70 in    
Wind  
Wind Speed 3 mph ()    
Max Wind Speed 9 mph    
Max Gust Speed -    
Visibility 6.1 miles    
Events      
Averages and records for this station are not official NWS values.
T = Trace of Precipitation, MM = Missing Value Source: Averaged Metar Reports

Daily Weather History Graph

Daily Weather History Graph

Search for Another Location

Airport or City:

Trip Planner

Search our weather history database for the weather conditions in past years. The results will help you decide how hot, cold, wet, or windy it might be!

Date:

Astronomy

Mar. 19, 2013 Rise Set
Actual Time 6:44 AM CET 6:50 PM CET
Civil Twilight 6:16 AM CET 7:19 PM CET
Nautical Twilight 5:42 AM CET 7:52 PM CET
Astronomical Twilight 5:08 AM CET 8:27 PM CET
Moon 11:10 AM CET (3/19) 1:35 AM CET (3/19)
Length of Visible Light 13h 03m
Length of Day
12h 06m
Waxing Crescent, 48% of the Moon is Illuminated
Mar 19
Waxing Crescent
Mar 19
First Quarter
Mar 27
Full
Apr 3
Last Quarter
Apr 10
New

Hourly Weather History & Observations

Time (CET) Temp. Windchill Dew Point Humidity Pressure Visibility Wind Dir Wind Speed Gust Speed Precip Events Conditions
12:00 AM 33.8 °F - 30.2 °F 87% 29.68 in 6.2 mi Variable 2.3 mph - N/A   Unknown
12:30 AM 33.8 °F 29.6 °F 30.2 °F 87% 29.68 in 6.2 mi NW 4.6 mph - N/A   Unknown
1:00 AM 33.8 °F 30.8 °F 30.2 °F 87% 29.68 in 6.2 mi East 3.5 mph - N/A   Unknown
1:30 AM 33.8 °F - 30.2 °F 87% 29.71 in 6.2 mi Calm Calm - N/A   Unknown
2:00 AM 35.6 °F 32.8 °F 32.0 °F 87% 29.71 in 6.2 mi Variable 3.5 mph - N/A   Unknown
2:30 AM 35.6 °F - 32.0 °F 87% 29.71 in 6.2 mi Variable 2.3 mph - N/A   Unknown
3:00 AM 35.6 °F - 32.0 °F 87% 29.71 in 6.2 mi Calm Calm - N/A   Unknown
3:30 AM 35.6 °F - 32.0 °F 87% 29.71 in 6.2 mi Variable 2.3 mph - N/A   Unknown
4:00 AM 37.4 °F - 33.8 °F 87% 29.71 in 6.2 mi Variable 2.3 mph - N/A   Unknown
4:30 AM 35.6 °F - 30.2 °F 81% 29.71 in 6.2 mi Calm Calm - N/A   Unknown
5:00 AM 35.6 °F 31.7 °F 32.0 °F 87% 29.74 in 6.2 mi NE 4.6 mph - N/A   Unknown
5:30 AM 37.4 °F - 33.8 °F 87% 29.74 in 6.2 mi Calm Calm - N/A   Unknown
6:00 AM 39.2 °F - 33.8 °F 81% 29.74 in 6.2 mi Variable 2.3 mph - N/A   Unknown
6:30 AM 35.6 °F - 32.0 °F 87% 29.74 in 6.2 mi NE 2.3 mph - N/A   Unknown
7:00 AM 35.6 °F - 32.0 °F 87% 29.74 in 6.2 mi Variable 2.3 mph - N/A   Unknown
7:30 AM 39.2 °F - 33.8 °F 81% 29.74 in 6.2 mi Variable 1.2 mph - N/A   Unknown
8:00 AM 41.0 °F - 33.8 °F 76% 29.74 in 6.2 mi Variable 2.3 mph - N/A   Unknown
8:30 AM 41.0 °F 38.0 °F 35.6 °F 81% 29.74 in 6.2 mi SSW 4.6 mph - N/A   Unknown
9:00 AM 42.8 °F 40.1 °F 33.8 °F 70% 29.74 in 6.2 mi SSW 4.6 mph - N/A   Unknown
9:30 AM 46.4 °F 45.2 °F 35.6 °F 66% 29.74 in 6.2 mi SW 3.5 mph - N/A   Unknown
10:00 AM 48.2 °F - 33.8 °F 58% 29.74 in 6.2 mi NW 3.5 mph - N/A   Unknown
10:30 AM 50.0 °F - 33.8 °F 54% 29.74 in 6.2 mi North 6.9 mph - N/A   Unknown
11:00 AM 50.0 °F - 33.8 °F 54% 29.74 in 6.2 mi NNW 8.1 mph - N/A   Unknown
11:30 AM 51.8 °F - 32.0 °F 47% 29.74 in 6.2 mi NNW 3.5 mph - N/A   Unknown
12:00 PM 51.8 °F - 32.0 °F 47% 29.74 in 6.2 mi Variable 3.5 mph - N/A   Unknown
12:30 PM 53.6 °F - 28.4 °F 38% 29.74 in 6.2 mi Variable 5.8 mph - N/A   Unknown
1:00 PM 53.6 °F - 28.4 °F 38% 29.74 in 6.2 mi West 4.6 mph - N/A   Unknown
1:30 PM 55.4 °F - 28.4 °F 36% 29.71 in 6.2 mi NNW 9.2 mph - N/A   Unknown
2:00 PM 55.4 °F - 30.2 °F 38% 29.71 in 6.2 mi SW 6.9 mph - N/A   Unknown
2:30 PM 57.2 °F - 30.2 °F 36% 29.71 in 6.2 mi Variable 6.9 mph - N/A   Unknown
3:00 PM 57.2 °F - 30.2 °F 36% 29.68 in 6.2 mi Variable 3.5 mph - N/A   Unknown
3:30 PM 57.2 °F - 30.2 °F 36% 29.68 in 6.2 mi SSW 8.1 mph - N/A   Unknown
4:00 PM 57.2 °F - 30.2 °F 36% 29.68 in 6.2 mi SSW 3.5 mph - N/A   Unknown
4:30 PM 57.2 °F - 30.2 °F 36% 29.68 in 6.2 mi SSW 6.9 mph - N/A   Unknown
5:00 PM 55.4 °F - 30.2 °F 38% 29.65 in 6.2 mi SW 5.8 mph - N/A   Unknown
5:30 PM 55.4 °F - 32.0 °F 41% 29.65 in 6.2 mi SSW 4.6 mph - N/A   Unknown
6:00 PM 53.6 °F - 32.0 °F 44% 29.65 in 6.2 mi Variable 3.5 mph - N/A   Unknown
6:30 PM 53.6 °F - 33.8 °F 47% 29.65 in 6.2 mi SSE 2.3 mph - N/A   Unknown
7:00 PM 51.8 °F - 33.8 °F 50% 29.65 in 6.2 mi South 2.3 mph - N/A   Unknown
7:30 PM 50.0 °F - 33.8 °F 54% 29.65 in 6.2 mi SSE 3.5 mph - N/A   Unknown
8:00 PM 48.2 °F - 33.8 °F 58% 29.68 in 3.7 mi Variable 2.3 mph - N/A   Unknown
8:30 PM 44.6 °F - 33.8 °F 66% 29.68 in 6.2 mi Variable 2.3 mph - N/A   Unknown
9:00 PM 41.0 °F 38.0 °F 35.6 °F 81% 29.68 in 6.2 mi NE 4.6 mph - N/A   Unknown
9:30 PM 41.0 °F 38.0 °F 35.6 °F 81% 29.68 in 6.2 mi NE 4.6 mph - N/A   Unknown
10:00 PM 41.0 °F 38.0 °F 35.6 °F 81% 29.68 in 6.2 mi NE 4.6 mph - N/A   Unknown
10:30 PM 41.0 °F 39.0 °F 35.6 °F 81% 29.68 in 6.2 mi Variable 3.5 mph - N/A   Mostly Cloudy
11:00 PM 42.8 °F 40.1 °F 35.6 °F 76% 29.65 in 6.2 mi NNE 4.6 mph - N/A   Mostly Cloudy
11:30 PM 42.8 °F 39.3 °F 35.6 °F 76% 29.65 in 6.2 mi NE 5.8 mph - N/A   Overcast